Baker, MT

7:41 AM MDT on August 19, 2017 (GMT -0600)
Baker Municipal

Weather History for KBHK - October, 2010

Change the Weather History Date:

Thursday, October 7, 2010

  Actual Average Record
Temperature  
Mean Temperature 64 °F -  
Max Temperature 82 °F 55 °F 84 °F (2003)
Min Temperature 48 °F 20 °F 12 °F (2000)
Growing Degree Days 14 (Base 50)    
Moisture  
Dew Point 43 °F    
Average Humidity 54    
Maximum Humidity 72    
Minimum Humidity 29    
Precipitation  
Precipitation 0.00 in - - ()
Sea Level Pressure  
Sea Level Pressure 29.95 in    
Wind  
Wind Speed 8 mph (South)    
Max Wind Speed 13 mph    
Max Gust Speed 20 mph    
Visibility 10 miles    
Events      
Averages and records for this station are not official NWS values.
T = Trace of Precipitation, MM = Missing Value Source: NWS Daily Summary

Daily Weather History Graph

Daily Weather History Graph

Search for Another Location

Airport or City:

Trip Planner

Search our weather history database for the weather conditions in past years. The results will help you decide how hot, cold, wet, or windy it might be!

Date:

Astronomy

Oct. 07, 2010 Rise Set
Actual Time 7:03 AM MDT 6:25 PM MDT
Civil Twilight 6:33 AM MDT 6:55 PM MDT
Nautical Twilight 5:58 AM MDT 7:30 PM MDT
Astronomical Twilight 5:23 AM MDT 8:05 PM MDT
Moon 7:01 AM MDT (10/7) 5:58 PM MDT (10/7)
Length of Visible Light 12h 21m
Length of Day
11h 21m
Waning Crescent, 0% of the Moon is Illuminated
Oct 7
Waning Crescent
Oct 7
New
Oct 14
First Quarter
Oct 22
Full
Oct 30
Last Quarter

Hourly Weather History & Observations

Time (MDT) Temp. Dew Point Humidity Pressure Visibility Wind Dir Wind Speed Gust Speed Precip Events Conditions
12:53 AM 51.1 °F 39.9 °F 66% 30.11 in 10.0 mi SE 8.1 mph - N/A   Clear
1:53 AM 53.1 °F 39.9 °F 61% 30.09 in 10.0 mi ESE 11.5 mph - N/A   Clear
2:53 AM 50.0 °F 39.0 °F 66% 30.07 in 10.0 mi SE 9.2 mph - N/A   Clear
3:53 AM 48.9 °F 39.0 °F 69% 30.03 in 10.0 mi SE 8.1 mph - N/A   Clear
4:53 AM 48.9 °F 39.0 °F 69% 30.01 in 10.0 mi SE 8.1 mph - N/A   Clear
5:53 AM 48.0 °F 39.0 °F 71% 30.00 in 10.0 mi East 5.8 mph - N/A   Clear
6:53 AM 50.0 °F 39.9 °F 68% 30.01 in 10.0 mi ESE 8.1 mph - N/A   Clear
7:53 AM 50.0 °F 39.9 °F 68% 30.01 in 10.0 mi SE 8.1 mph - N/A   Clear
8:53 AM 57.9 °F 43.0 °F 58% 29.99 in 10.0 mi SE 8.1 mph - N/A   Clear
9:53 AM 64.9 °F 46.0 °F 50% 29.97 in 10.0 mi South 10.4 mph - N/A   Clear
10:53 AM 71.1 °F 46.9 °F 42% 29.95 in 10.0 mi SW 11.5 mph - N/A   Clear
11:53 AM 73.9 °F 46.0 °F 37% 29.93 in 10.0 mi West 12.7 mph - N/A   Clear
12:53 PM 77.0 °F 48.0 °F 36% 29.92 in 10.0 mi West 12.7 mph - N/A   Clear
1:53 PM 79.0 °F 46.0 °F 31% 29.90 in 10.0 mi West 9.2 mph - N/A   Clear
2:53 PM 81.0 °F 46.9 °F 30% 29.88 in 10.0 mi WSW 12.7 mph 19.6 mph N/A   Clear
3:53 PM 79.0 °F 44.1 °F 29% 29.88 in 10.0 mi West 12.7 mph - N/A   Clear
4:53 PM 80.1 °F 45.0 °F 29% 29.87 in 10.0 mi West 11.5 mph - N/A   Clear
5:53 PM 73.0 °F 45.0 °F 37% 29.88 in 10.0 mi WSW 6.9 mph - N/A   Clear
6:53 PM 66.9 °F 43.0 °F 42% 29.89 in 10.0 mi Calm Calm - N/A   Clear
7:53 PM 54.0 °F 43.0 °F 66% 29.92 in 10.0 mi SE 4.6 mph - N/A   Clear
8:53 PM 54.0 °F 42.1 °F 64% 29.90 in 10.0 mi Calm Calm - N/A   Clear
9:53 PM 53.1 °F 42.1 °F 66% 29.91 in 10.0 mi SSE 4.6 mph - N/A   Clear
10:53 PM 55.0 °F 46.0 °F 72% 29.89 in 10.0 mi Calm Calm - N/A   Clear
11:53 PM 52.0 °F 43.0 °F 71% 29.88 in 10.0 mi Calm Calm - N/A   Clear